Location: Hillern
(53.0557°N, 9.8577°E)
Time: 22:06:14
(UTC+00:00)

Cosmos 1842 - Pass Details

Date: 19 May 2025
Orbit: 440 x 450 km, 82.5° (Epoch: 15 June)

Event Time Altitude Azimuth Distance (km) Brightness Sun altitude
Exits shadow 22:04:09 21° 113° (ESE) 1,076 4.4 -15.3°
Maximum altitude 22:05:01 23° 90° (E) 1,006 4.5 -15.3°
Drops below altitude 10° 22:07:51 10° 36° (NE) 1,602 6.2 -15.4°
Sets 22:10:12 0° 21° (NNE) 2,482 7.5 -15.5°
